Location: Bourg-d�Oueil
(42.8588°N, 0.4991°E)
Time: 02:53:09
(UTC+00:00)

ALOS 2 - Pass Details

Date: 16 June 2021
Orbit: 630 x 632 km, 97.9° (Epoch: 04 August)

Event Time Altitude Azimuth Distance (km) Brightness Sun altitude
Exits shadow 23:49:23 53° 259° (WSW) 782 2.9 -23.7°
Maximum altitude 23:49:25 53° 260° (W) 782 2.9 -23.7°
Drops below altitude 10° 23:53:43 10° 338° (NNW) 2,023 6.1 -23.8°
Sets 23:55:59 0° 343° (NNW) 2,935 7.3 -23.8°
